Hourly Weather Rusava (Rusava-Radyanka)

Today, 19 May, Wednesday

Time Temperature Precipitation Wind Pressure Humidity
00:00 +13°C° 0.3 mm 2 mps 726 mmHg 95%
01:00 +13°C° 0.3 mm 2 mps 726 mmHg 96%
02:00 +11°C° 0.3 mm 3 mps 726 mmHg 96%
03:00 +12°C° 0.9 mm 3 mps 726 mmHg 96%
04:00 +12°C° 0.9 mm 4 mps 726 mmHg 96%
05:00 +12°C° 0.9 mm 5 mps 727 mmHg 96%
06:00 +10°C° 2 mm 6 mps 727 mmHg 95%
07:00 +10°C° 2 mm 7 mps 728 mmHg 94%
08:00 +10°C° 2 mm 8 mps 729 mmHg 93%
09:00 +10°C° 1.5 mm 8 mps 729 mmHg 93%
10:00 +10°C° 1.5 mm 8 mps 730 mmHg 92%
11:00 +10°C° 1.5 mm 8 mps 731 mmHg 92%
12:00 +10°C° 1.1 mm 7 mps 731 mmHg 90%
13:00 +10°C° 1.1 mm 7 mps 732 mmHg 88%
14:00 +11°C° 1.1 mm 7 mps 732 mmHg 86%
15:00 +11°C° 0.4 mm 6 mps 732 mmHg 84%
16:00 +13°C° 0.4 mm 5 mps 733 mmHg 82%
17:00 +13°C° 0.4 mm 4 mps 733 mmHg 81%
18:00 +12°C° 0.1 mm 4 mps 733 mmHg 84%
19:00 +12°C° 0.1 mm 4 mps 733 mmHg 88%
20:00 +11°C° 0.1 mm 3 mps 734 mmHg 91%
21:00 +11°C° 0 mm 3 mps 734 mmHg 92%
22:00 +10°C° 0 mm 3 mps 734 mmHg 93%
23:00 +9°C° 0 mm 2 mps 734 mmHg 94%

Tomorrow, 20 May, Thursday

Time Temperature Precipitation Wind Pressure Humidity
00:00 +9°C° 0 mm 2 mps 734 mmHg 94%
01:00 +9°C° 0 mm 2 mps 734 mmHg 95%
02:00 +8°C° 0 mm 2 mps 734 mmHg 95%
03:00 +8°C° 0 mm 2 mps 734 mmHg 95%
04:00 +8°C° 0 mm 2 mps 734 mmHg 95%
05:00 +9°C° 0 mm 1 mps 734 mmHg 95%
06:00 +10°C° 0 mm 2 mps 734 mmHg 90%
07:00 +12°C° 0 mm 2 mps 734 mmHg 85%
08:00 +14°C° 0 mm 2 mps 734 mmHg 81%
09:00 +15°C° 0.2 mm 2 mps 734 mmHg 76%
10:00 +16°C° 0.2 mm 2 mps 734 mmHg 72%
11:00 +17°C° 0.2 mm 2 mps 734 mmHg 68%
12:00 +16°C° 0.7 mm 2 mps 734 mmHg 72%
13:00 +14°C° 0.7 mm 3 mps 734 mmHg 76%
14:00 +14°C° 0.7 mm 4 mps 734 mmHg 81%
15:00 +13°C° 0.5 mm 3 mps 734 mmHg 83%
16:00 +13°C° 0.5 mm 3 mps 734 mmHg 85%
17:00 +13°C° 0.5 mm 2 mps 734 mmHg 88%
18:00 +13°C° 0.2 mm 2 mps 735 mmHg 89%
19:00 +12°C° 0.2 mm 2 mps 735 mmHg 91%
20:00 +12°C° 0.2 mm 1 mps 735 mmHg 93%
21:00 +12°C° 0.1 mm 2 mps 735 mmHg 94%
22:00 +10°C° 0.1 mm 2 mps 735 mmHg 94%
23:00 +10°C° 0.1 mm 2 mps 735 mmHg 95%

Day after tomorrow, 21 May, Friday

Time Temperature Precipitation Wind Pressure Humidity
00:00 +10°C° 0.1 mm 2 mps 735 mmHg 95%
01:00 +10°C° 0.1 mm 3 mps 736 mmHg 96%
02:00 +10°C° 0.1 mm 3 mps 736 mmHg 96%
03:00 +10°C° 0.6 mm 3 mps 736 mmHg 96%
04:00 +10°C° 0.6 mm 2 mps 736 mmHg 97%
05:00 +10°C° 0.6 mm 2 mps 736 mmHg 97%
06:00 +10°C° 0.9 mm 2 mps 736 mmHg 96%
07:00 +10°C° 0.9 mm 3 mps 737 mmHg 96%
08:00 +10°C° 0.9 mm 3 mps 737 mmHg 96%
09:00 +11°C° 0.3 mm 3 mps 737 mmHg 94%
10:00 +11°C° 0.3 mm 3 mps 738 mmHg 93%
11:00 +11°C° 0.3 mm 3 mps 738 mmHg 91%
12:00 +12°C° 0 mm 4 mps 738 mmHg 90%
13:00 +12°C° 0 mm 4 mps 738 mmHg 88%
14:00 +12°C° 0 mm 4 mps 738 mmHg 86%
15:00 +13°C° 0 mm 4 mps 738 mmHg 83%
16:00 +14°C° 0 mm 3 mps 738 mmHg 81%
17:00 +14°C° 0 mm 3 mps 738 mmHg 78%
18:00 +13°C° 0 mm 3 mps 738 mmHg 81%
19:00 +12°C° 0 mm 3 mps 738 mmHg 84%
20:00 +12°C° 0 mm 3 mps 739 mmHg 87%
21:00 +11°C° 0 mm 3 mps 739 mmHg 89%
22:00 +11°C° 0 mm 3 mps 738 mmHg 90%
23:00 +10°C° 0 mm 2 mps 738 mmHg 91%

22 May, Saturday

Time Temperature Precipitation Wind Pressure Humidity
00:00 +10°C° 0 mm 2 mps 738 mmHg 91%
01:00 +9°C° 0 mm 2 mps 738 mmHg 91%
02:00 +9°C° 0 mm 2 mps 738 mmHg 92%
03:00 +9°C° 0 mm 2 mps 738 mmHg 92%
04:00 +9°C° 0 mm 2 mps 738 mmHg 91%
05:00 +9°C° 0 mm 2 mps 738 mmHg 91%
06:00 +12°C° 0 mm 2 mps 738 mmHg 85%
07:00 +14°C° 0 mm 2 mps 738 mmHg 79%
08:00 +16°C° 0 mm 3 mps 738 mmHg 73%
09:00 +17°C° 0 mm 3 mps 738 mmHg 68%
10:00 +18°C° 0 mm 3 mps 738 mmHg 63%
11:00 +19°C° 0 mm 3 mps 738 mmHg 58%
12:00 +20°C° 0 mm 3 mps 738 mmHg 57%
13:00 +20°C° 0 mm 2 mps 738 mmHg 56%
14:00 +21°C° 0 mm 2 mps 737 mmHg 54%
15:00 +21°C° 0 mm 2 mps 737 mmHg 57%
16:00 +20°C° 0 mm 2 mps 737 mmHg 59%
17:00 +20°C° 0 mm 2 mps 736 mmHg 62%
18:00 +19°C° 0 mm 2 mps 736 mmHg 66%
19:00 +17°C° 0 mm 2 mps 736 mmHg 71%
20:00 +15°C° 0 mm 2 mps 736 mmHg 75%
21:00 +15°C° 0 mm 2 mps 736 mmHg 78%
22:00 +14°C° 0 mm 1 mps 736 mmHg 80%
23:00 +14°C° 0 mm 1 mps 735 mmHg 83%

23 May, Sunday

Time Temperature Precipitation Wind Pressure Humidity
00:00 +14°C° 0 mm 2 mps 735 mmHg 84%
01:00 +14°C° 0 mm 2 mps 735 mmHg 85%
02:00 +13°C° 0 mm 2 mps 735 mmHg 86%
03:00 +13°C° 0 mm 2 mps 734 mmHg 87%
04:00 +13°C° 0 mm 2 mps 734 mmHg 87%
05:00 +13°C° 0 mm 2 mps 734 mmHg 87%
06:00 +14°C° 0 mm 3 mps 734 mmHg 83%
07:00 +16°C° 0 mm 3 mps 734 mmHg 79%
08:00 +18°C° 0 mm 4 mps 734 mmHg 75%
09:00 +17°C° 0.4 mm 5 mps 735 mmHg 74%
10:00 +17°C° 0.4 mm 6 mps 735 mmHg 72%
11:00 +17°C° 0.4 mm 7 mps 735 mmHg 71%
12:00 +17°C° 0.1 mm 7 mps 736 mmHg 69%
13:00 +16°C° 0.1 mm 6 mps 736 mmHg 68%
14:00 +16°C° 0.1 mm 6 mps 737 mmHg 66%
15:00 +16°C° 0 mm 6 mps 737 mmHg 65%
16:00 +16°C° 0 mm 5 mps 737 mmHg 65%
17:00 +17°C° 0 mm 4 mps 737 mmHg 65%
18:00 +15°C° 0 mm 4 mps 737 mmHg 70%
19:00 +13°C° 0 mm 3 mps 738 mmHg 74%
20:00 +12°C° 0 mm 3 mps 738 mmHg 79%
21:00 +13°C° 0 mm 2 mps 738 mmHg 80%
22:00 +12°C° 0 mm 2 mps 739 mmHg 82%
23:00 +10°C° 0 mm 2 mps 739 mmHg 83%

24 May, Monday

Time Temperature Precipitation Wind Pressure Humidity
00:00 +10°C° 0 mm 2 mps 740 mmHg 84%
01:00 +10°C° 0 mm 2 mps 740 mmHg 85%
02:00 +10°C° 0 mm 2 mps 741 mmHg 86%
03:00 +9°C° 0 mm 2 mps 741 mmHg 88%
04:00 +9°C° 0 mm 2 mps 742 mmHg 90%
05:00 +8°C° 0 mm 2 mps 742 mmHg 92%
06:00 +10°C° 0 mm 3 mps 743 mmHg 85%
07:00 +11°C° 0 mm 3 mps 743 mmHg 79%
08:00 +13°C° 0 mm 4 mps 744 mmHg 73%
09:00 +14°C° 0 mm 4 mps 744 mmHg 68%
10:00 +15°C° 0 mm 4 mps 744 mmHg 63%
11:00 +17°C° 0 mm 3 mps 745 mmHg 58%
12:00 +17°C° 0 mm 4 mps 745 mmHg 58%
13:00 +18°C° 0 mm 4 mps 745 mmHg 57%
14:00 +18°C° 0 mm 4 mps 745 mmHg 57%
15:00 +18°C° 0 mm 3 mps 745 mmHg 56%
16:00 +18°C° 0 mm 3 mps 745 mmHg 55%
17:00 +18°C° 0 mm 2 mps 745 mmHg 54%
18:00 +17°C° 0 mm 2 mps 745 mmHg 60%
19:00 +15°C° 0 mm 2 mps 745 mmHg 66%
20:00 +14°C° 0 mm 2 mps 745 mmHg 72%
21:00 +13°C° 0 mm 2 mps 745 mmHg 74%
22:00 +13°C° 0 mm 2 mps 745 mmHg 75%
23:00 +11°C° 0 mm 3 mps 745 mmHg 77%
Show more